Location: Brentwood
(37.9320°N, 121.6950°W)
Time: 11:42:16
(UTC-07:00)

Hubble Space Telescope - Visible Passes

Search period start: 19 March 2019 00:00
Search period end: 29 March 2019 00:00
Orbit: 537 x 540 km, 28.5° (Epoch: 18 March)

Date Brightness Start Highest point End Pass type
(mag) Time Alt. Az. Time Alt. Az. Time Alt. Az.
24 Mar 3.0 21:13:06 10° SSW 21:14:11 14° SSW 21:14:11 14° SSW visible
25 Mar 2.6 21:02:19 10° SW 21:04:32 18° S 21:04:32 18° S visible
26 Mar 2.4 20:51:36 10° SW 20:54:41 20° S 20:54:48 20° S visible
27 Mar 2.3 20:40:56 10° SW 20:44:07 21° S 20:45:02 20° SSE visible
28 Mar 2.4 20:30:20 10° SW 20:33:32 22° S 20:35:13 17° SE visible
